Location: Pitton
(51.0667°N, 1.7000°W)
Time: 08:21:53
(UTC+00:00)

Cosmos 1140 Rocket - Pass Details

Date: 17 September 2019
Orbit: 745 x 767 km, 74.1° (Epoch: 19 October)

Event Time Altitude Azimuth Distance (km) Brightness Sun altitude
Rises 19:16:04 0° 339° (NNW) 3,230 7.3 -9.9°
Reaches altitude 10° 19:18:38 10° 348° (NNW) 2,297 6.4 -10.3°
Maximum altitude 19:23:26 36° 55° (NE) 1,183 4.2 -11.0°
Enters shadow 19:27:06 16° 115° (ESE) 1,911 4.9 -11.6°
